This is the latest recevied weather packets stored in our database for station/object KE8GJZ-2. If no packets are shown the sender has not sent any weather packets the latest 10 day(s).
| Time | Temp. | Humidity | Pressure | Rain* | Wind** | Luminosity | Snow |
|---|---|---|---|---|---|---|---|
| 1778158367 | 7.78° C | 67% | 1015.3 hPa | 0 mm | - | 296 W/m² | - |
| 1778158063 | 7.78° C | 72% | 1015.2 hPa | 0 mm | - | 275 W/m² | - |
| 1778157760 | 8.33° C | 68% | 1014.9 hPa | 0 mm | - | 283 W/m² | - |
| 1778157459 | 7.78° C | 71% | 1015.2 hPa | 0 mm | - | 226 W/m² | - |
| 1778157156 | 7.22° C | 71% | 1015 hPa | 0 mm | - | 230 W/m² | - |
| 1778156851 | 7.22° C | 73% | 1015.3 hPa | 0 mm | - | 230 W/m² | - |
| 1778156547 | 6.67° C | 73% | 1015.2 hPa | 0 mm | - | 202 W/m² | - |
| 1778156243 | 7.22° C | 71% | 1015.1 hPa | 0 mm | - | 185 W/m² | - |
| 1778155939 | 6.67° C | 73% | 1015.2 hPa | 0 mm | - | 184 W/m² | - |
| 1778155635 | 6.67° C | 72% | 1015.3 hPa | 0 mm | - | 160 W/m² | - |
| 1778155333 | 7.22° C | 72% | 1015.1 hPa | 0 mm | - | 127 W/m² | - |
| 1778155028 | 7.22° C | 71% | 1015.3 hPa | 0 mm | - | 127 W/m² | - |
| 1778154724 | 6.67° C | 74% | 1015.4 hPa | 0 mm | - | 95 W/m² | - |
| 1778154420 | 6.67° C | 74% | 1015.4 hPa | 0 mm | - | 93 W/m² | - |
| 1778154117 | 6.11° C | 76% | 1015.4 hPa | 0 mm | - | 88 W/m² | - |
| 1778153815 | 6.67° C | 77% | 1015.4 hPa | 0 mm | - | 72 W/m² | - |
| 1778153512 | 6.11° C | 76% | 1015.1 hPa | 0 mm | - | 51 W/m² | - |
| 1778153209 | 6.11° C | 76% | 1015 hPa | 0 mm | - | 46 W/m² | - |
| 1778152906 | 5.56° C | 78% | 1015 hPa | 0 mm | - | 40 W/m² | - |
| 1778152603 | 5° C | 80% | 1015.1 hPa | 0 mm | - | 35 W/m² | - |
| 1778152300 | 3.89° C | 82% | 1014.7 hPa | 0 mm | - | 30 W/m² | - |
| 1778151996 | 3.89° C | 83% | 1014.9 hPa | 0 mm | - | 21 W/m² | - |
| 1778151693 | 3.89° C | 83% | 1014.3 hPa | 0 mm | - | 18 W/m² | - |
| 1778151390 | 3.33° C | 83% | 1014.6 hPa | 0 mm | - | 15 W/m² | - |
| 1778151086 | 3.33° C | 84% | 1014.8 hPa | 0 mm | - | 12 W/m² | - |
* Rain latest hour (hover to see other rain measurements)
** Current wind speed in m/s (hover to see current wind gust speed)